| time (UTC) | temp F | wind direction | speed knots | gust knots | rain 1hr in | rain 24hr in | rain mn in | humidity % | barometer mb |
| 20260505093028 | 66 | 88 | 5.2 | 11.3 | 0.00 | 0.00 | 0.00 | 75 | 1000.7 |
| 20260505092528 | 66 | 83 | 5.2 | 10.4 | 0.00 | 0.00 | 0.00 | 75 | 1000.7 |
| 20260505092028 | 66 | 91 | 5.2 | 8.7 | 0.00 | 0.00 | 0.00 | 75 | 1000.8 |
| 20260505091528 | 66 | 84 | 4.3 | 8.7 | 0.00 | 0.00 | 0.00 | 75 | 1000.8 |
| 20260505091029 | 66 | 94 | 5.2 | 12.2 | 0.00 | 0.00 | 0.00 | 75 | 1000.8 |
| 20260505090527 | 66 | 90 | 4.3 | 7.8 | 0.00 | 0.00 | 0.00 | 75 | 1000.9 |
| 20260505090028 | 66 | 95 | 5.2 | 9.6 | 0.00 | 0.00 | 0.00 | 75 | 1000.9 |
| 20260505085528 | 66 | 94 | 4.3 | 10.4 | 0.00 | 0.00 | 0.00 | 75 | 1000.9 |
| 20260505085027 | 66 | 94 | 4.3 | 8.7 | 0.00 | 0.00 | 0.00 | 75 | 1001.0 |
| 20260505084527 | 66 | 92 | 4.3 | 8.7 | 0.00 | 0.00 | 0.00 | 74 | 1001.0 |
| 20260505084028 | 66 | 92 | 4.3 | 8.7 | 0.00 | 0.00 | 0.00 | 74 | 1001.0 |
| 20260505083528 | 66 | 94 | 6.1 | 13.0 | 0.00 | 0.00 | 0.00 | 74 | 1001.0 |
| 20260505083028 | 66 | 87 | 5.2 | 9.6 | 0.00 | 0.00 | 0.00 | 74 | 1001.0 |
| 20260505082527 | 66 | 99 | 4.3 | 7.8 | 0.00 | 0.00 | 0.00 | 75 | 1001.1 |
| 20260505082028 | 66 | 84 | 4.3 | 7.8 | 0.00 | 0.00 | 0.00 | 74 | 1001.2 |
| 20260505081528 | 66 | 94 | 3.5 | 8.7 | 0.00 | 0.00 | 0.00 | 74 | 1001.3 |
| 20260505081028 | 66 | 82 | 4.3 | 7.8 | 0.00 | 0.00 | 0.00 | 74 | 1001.3 |
| 20260505080528 | 66 | 84 | 4.3 | 7.0 | 0.00 | 0.00 | 0.00 | 74 | 1001.3 |
| 20260505080027 | 66 | 77 | 4.3 | 7.8 | 0.00 | 0.00 | 0.00 | 74 | 1001.4 |
| 20260505075528 | 66 | 88 | 4.3 | 8.7 | 0.00 | 0.00 | 0.00 | 74 | 1001.4 |
| 20260505074027 | 67 | 88 | 5.2 | 9.6 | 0.00 | 0.00 | 0.00 | 73 | 1001.5 |
| 20260505073527 | 67 | 83 | 5.2 | 9.6 | 0.00 | 0.00 | 0.00 | 73 | 1001.5 |
| 20260505073027 | 67 | 91 | 5.2 | 7.8 | 0.00 | 0.00 | 0.00 | 73 | 1001.7 |
| 20260505072528 | 67 | 93 | 4.3 | 7.8 | 0.00 | 0.00 | 0.00 | 73 | 1001.9 |
| 20260505072027 | 68 | 86 | 3.5 | 6.1 | 0.00 | 0.00 | 0.00 | 72 | 1001.9 |
| 20260505071527 | 68 | 87 | 4.3 | 7.8 | 0.00 | 0.00 | 0.00 | 73 | 1002.1 |
| 20260505071028 | 68 | 75 | 4.3 | 8.7 | 0.00 | 0.00 | 0.00 | 72 | 1002.1 |
| 20260505070528 | 68 | 76 | 3.5 | 7.0 | 0.00 | 0.00 | 0.00 | 72 | 1002.1 |
| 20260505070027 | 68 | 87 | 3.5 | 6.1 | 0.00 | 0.00 | 0.00 | 73 | 1002.1 |
| 20260505065527 | 68 | 78 | 3.5 | 5.2 | 0.00 | 0.00 | 0.00 | 73 | 1002.2 |
| 20260505065028 | 68 | 81 | 4.3 | 7.0 | 0.00 | 0.00 | 0.00 | 73 | 1002.2 |
| 20260505064027 | 68 | 73 | 3.5 | 4.3 | 0.00 | 0.00 | 0.00 | 74 | 1002.4 |
| 20260505063527 | 68 | 77 | 2.6 | 5.2 | 0.00 | 0.00 | 0.00 | 74 | 1002.4 |
| 20260505063027 | 68 | 76 | 2.6 | 4.3 | 0.00 | 0.00 | 0.00 | 74 | 1002.4 |
| 20260505062527 | 67 | 63 | 2.6 | 4.3 | 0.00 | 0.00 | 0.00 | 75 | 1002.3 |
| 20260505062027 | 67 | 72 | 2.6 | 5.2 | 0.00 | 0.00 | 0.00 | 76 | 1002.4 |
| 20260505061527 | 67 | 81 | 1.7 | 4.3 | 0.00 | 0.00 | 0.00 | 75 | 1002.6 |
| 20260505061028 | 68 | 48 | 0.9 | 2.6 | 0.00 | 0.00 | 0.00 | 74 | 1002.6 |
| 20260505060528 | 68 | 25 | 0.9 | 2.6 | 0.00 | 0.00 | 0.00 | 74 | 1002.5 |
| 20260505060027 | 68 | 49 | 0.9 | 2.6 | 0.00 | 0.00 | 0.00 | 73 | 1002.3 |
| 20260505055527 | 69 | 148 | 0.0 | 1.7 | 0.00 | 0.00 | 0.00 | 71 | 1002.2 |
| 20260505055027 | 69 | 354 | 0.0 | 1.7 | 0.00 | 0.00 | 0.00 | 70 | 1002.2 |
| 20260505054527 | 69 | 72 | 0.9 | 4.3 | 0.00 | 0.00 | 0.00 | 71 | 1002.1 |
| 20260505054027 | 69 | 35 | 2.6 | 4.3 | 0.00 | 0.00 | 0.00 | 69 | 1002.1 |
| 20260505053527 | 69 | 47 | 1.7 | 4.3 | 0.00 | 0.00 | 0.00 | 69 | 1001.9 |
| 20260505053027 | 69 | 127 | 2.6 | 6.1 | 0.00 | 0.00 | 0.00 | 69 | 1001.7 |
| 20260505052527 | 69 | 156 | 2.6 | 6.1 | 0.00 | 0.00 | 0.00 | 69 | 1001.6 |
| 20260505052028 | 69 | 170 | 2.6 | 7.8 | 0.00 | 0.00 | 0.00 | 69 | 1001.5 |
| 20260505051528 | 69 | 162 | 3.5 | 6.1 | 0.00 | 0.00 | 0.00 | 69 | 1001.7 |
| 20260505051028 | 69 | 169 | 3.5 | 7.0 | 0.00 | 0.00 | 0.00 | 68 | 1001.7 |
| 20260505050528 | 69 | 163 | 2.6 | 6.1 | 0.00 | 0.00 | 0.00 | 68 | 1001.6 |
| 20260505041527 | 69 | 139 | 2.6 | 11.3 | 0.00 | 0.00 | 0.00 | 66 | 1001.3 |
| 20260505041028 | 69 | 146 | 2.6 | 7.0 | 0.00 | 0.00 | 0.00 | 66 | 1001.4 |
| 20260505040528 | 69 | 138 | 2.6 | 7.8 | 0.00 | 0.00 | 0.00 | 66 | 1001.5 |
| 20260505040027 | 69 | 134 | 1.7 | 6.1 | 0.00 | 0.00 | 0.00 | 65 | 1001.6 |
| 20260505035527 | 69 | 155 | 3.5 | 6.1 | 0.00 | 0.00 | 0.00 | 65 | 1001.6 |
| 20260505034028 | 69 | 159 | 2.6 | 6.1 | 0.00 | 0.00 | 0.00 | 64 | 1001.8 |
| 20260505033528 | 69 | 142 | 4.3 | 7.8 | 0.00 | 0.00 | 0.00 | 64 | 1001.7 |
| 20260505032027 | 70 | 130 | 2.6 | 5.2 | 0.00 | 0.00 | 0.00 | 63 | 1002.3 |
| 20260505031527 | 70 | 122 | 3.5 | 6.1 | 0.00 | 0.00 | 0.00 | 63 | 1002.4 |
| 20260505031027 | 70 | 121 | 2.6 | 5.2 | 0.00 | 0.00 | 0.00 | 63 | 1002.5 |
| 20260505030527 | 70 | 113 | 2.6 | 6.1 | 0.00 | 0.00 | 0.00 | 63 | 1002.4 |
| 20260505025027 | 70 | 119 | 2.6 | 5.2 | 0.00 | 0.00 | 0.00 | 64 | 1002.5 |
| 20260505024527 | 70 | 116 | 3.5 | 6.1 | 0.00 | 0.00 | 0.00 | 63 | 1002.3 |
| 20260505024028 | 70 | 120 | 3.5 | 6.1 | 0.00 | 0.00 | 0.00 | 63 | 1002.4 |
| 20260505023528 | 70 | 108 | 3.5 | 7.0 | 0.00 | 0.00 | 0.00 | 63 | 1002.4 |
| 20260505023027 | 70 | 115 | 2.6 | 6.1 | 0.00 | 0.00 | 0.00 | 63 | 1002.6 |
| 20260505022527 | 70 | 127 | 2.6 | 5.2 | 0.00 | 0.00 | 0.00 | 63 | 1002.7 |
| 20260505022028 | 70 | 111 | 2.6 | 6.1 | 0.00 | 0.00 | 0.00 | 62 | 1002.6 |
| 20260505021528 | 70 | 105 | 2.6 | 6.1 | 0.00 | 0.00 | 0.00 | 62 | 1002.6 |
| 20260505021027 | 71 | 112 | 1.7 | 5.2 | 0.00 | 0.00 | 0.00 | 62 | 1002.7 |
| 20260505020527 | 71 | 117 | 2.6 | 3.5 | 0.00 | 0.00 | 0.00 | 61 | 1002.6 |
| 20260505020028 | 71 | 132 | 2.6 | 5.2 | 0.00 | 0.00 | 0.00 | 61 | 1002.6 |
| 20260505015528 | 71 | 124 | 2.6 | 6.1 | 0.00 | 0.00 | 0.00 | 60 | 1002.5 |
| 20260505015027 | 71 | 133 | 2.6 | 8.7 | 0.00 | 0.00 | 0.00 | 60 | 1002.5 |
| 20260505014527 | 72 | 129 | 1.7 | 4.3 | 0.00 | 0.00 | 0.00 | 60 | 1002.5 |
| 20260505014028 | 72 | 150 | 1.7 | 2.6 | 0.00 | 0.00 | 0.00 | 60 | 1002.4 |
| 20260505013528 | 72 | 127 | 1.7 | 5.2 | 0.00 | 0.00 | 0.00 | 60 | 1002.4 |
| 20260505011527 | 72 | 141 | 1.7 | 6.1 | 0.00 | 0.00 | 0.00 | 60 | 1002.4 |
| 20260505011027 | 73 | 136 | 1.7 | 5.2 | 0.00 | 0.00 | 0.00 | 60 | 1002.5 |
| 20260505010527 | 73 | 148 | 1.7 | 3.5 | 0.00 | 0.00 | 0.00 | 60 | 1002.4 |
| 20260505010027 | 73 | 141 | 1.7 | 4.3 | 0.00 | 0.00 | 0.00 | 60 | 1002.4 |
| 20260505005527 | 74 | 133 | 1.7 | 5.2 | 0.00 | 0.00 | 0.00 | 59 | 1002.4 |
| 20260505005027 | 74 | 154 | 1.7 | 5.2 | 0.00 | 0.00 | 0.00 | 58 | 1002.4 |
| 20260505004527 | 74 | 153 | 2.6 | 6.1 | 0.00 | 0.00 | 0.00 | 58 | 1002.4 |
| 20260505004027 | 74 | 151 | 2.6 | 4.3 | 0.00 | 0.00 | 0.00 | 58 | 1002.4 |
| 20260505003527 | 74 | 136 | 1.7 | 4.3 | 0.00 | 0.00 | 0.00 | 58 | 1002.4 |
| 20260505003028 | 75 | 154 | 1.7 | 4.3 | 0.00 | 0.00 | 0.00 | 58 | 1002.4 |
| 20260505002527 | 75 | 159 | 2.6 | 5.2 | 0.00 | 0.00 | 0.00 | 57 | 1002.5 |
| 20260505002027 | 75 | 186 | 4.3 | 9.6 | 0.00 | 0.00 | 0.00 | 57 | 1002.5 |
| 20260505001527 | 75 | 147 | 1.7 | 5.2 | 0.00 | 0.00 | 0.00 | 57 | 1002.6 |
| 20260505001027 | 75 | 159 | 3.5 | 7.0 | 0.00 | 0.00 | 0.00 | 57 | 1002.6 |
| 20260504234528 | 76 | 178 | 2.6 | 5.2 | 0.00 | 0.00 | 0.00 | 56 | 1002.9 |
| 20260504234027 | 76 | 154 | 3.5 | 7.0 | 0.00 | 0.00 | 0.00 | 56 | 1002.9 |
| 20260504233527 | 76 | 171 | 3.5 | 10.4 | 0.00 | 0.00 | 0.00 | 56 | 1003.0 |
| 20260504233027 | 76 | 183 | 2.6 | 7.0 | 0.00 | 0.00 | 0.00 | 56 | 1003.1 |
| 20260504232527 | 76 | 175 | 3.5 | 7.0 | 0.00 | 0.00 | 0.00 | 56 | 1003.2 |
| 20260504232027 | 76 | 168 | 3.5 | 7.8 | 0.00 | 0.00 | 0.00 | 55 | 1003.2 |
| 20260504231527 | 76 | 171 | 3.5 | 7.0 | 0.00 | 0.00 | 0.00 | 56 | 1003.2 |
| 20260504231027 | 76 | 187 | 4.3 | 7.8 | 0.00 | 0.00 | 0.00 | 57 | 1003.2 |
| 20260504230527 | 76 | 185 | 3.5 | 8.7 | 0.00 | 0.00 | 0.00 | 56 | 1003.2 |
| 20260504230027 | 77 | 175 | 5.2 | 9.6 | 0.00 | 0.00 | 0.00 | 56 | 1003.1 |
| 20260504225528 | 77 | 172 | 3.5 | 7.0 | 0.00 | 0.00 | 0.00 | 56 | 1003.1 |
| 20260504225028 | 77 | 169 | 2.6 | 8.7 | 0.00 | 0.00 | 0.00 | 56 | 1003.1 |
| 20260504224528 | 77 | 183 | 5.2 | 9.6 | 0.00 | 0.00 | 0.00 | 55 | 1003.1 |
| 20260504224028 | 77 | 172 | 2.6 | 7.8 | 0.00 | 0.00 | 0.00 | 56 | 1003.0 |
| 20260504223528 | 77 | 177 | 4.3 | 10.4 | 0.00 | 0.00 | 0.00 | 55 | 1003.0 |
| 20260504223028 | 77 | 179 | 5.2 | 10.4 | 0.00 | 0.00 | 0.00 | 54 | 1003.0 |
| 20260504222527 | 77 | 178 | 3.5 | 8.7 | 0.00 | 0.00 | 0.00 | 55 | 1003.0 |
| 20260504222027 | 77 | 192 | 3.5 | 10.4 | 0.00 | 0.00 | 0.00 | 55 | 1002.9 |
| 20260504221527 | 77 | 186 | 4.3 | 12.2 | 0.00 | 0.00 | 0.00 | 55 | 1002.9 |
| 20260504221027 | 77 | 172 | 3.5 | 6.1 | 0.00 | 0.00 | 0.00 | 54 | 1002.9 |
| 20260504220527 | 78 | 179 | 3.5 | 6.1 | 0.00 | 0.00 | 0.00 | 55 | 1002.9 |
| 20260504220027 | 78 | 185 | 6.1 | 12.2 | 0.00 | 0.00 | 0.00 | 53 | 1002.9 |
| 20260504215527 | 78 | 184 | 4.3 | 10.4 | 0.00 | 0.00 | 0.00 | 54 | 1002.9 |
| 20260504215027 | 78 | 188 | 5.2 | 10.4 | 0.00 | 0.00 | 0.00 | 54 | 1003.0 |
| 20260504214527 | 78 | 191 | 5.2 | 9.6 | 0.00 | 0.00 | 0.00 | 53 | 1003.0 |
| 20260504214027 | 78 | 184 | 6.1 | 16.5 | 0.00 | 0.00 | 0.00 | 53 | 1003.1 |
| 20260504213527 | 78 | 186 | 5.2 | 11.3 | 0.00 | 0.00 | 0.00 | 53 | 1003.1 |
| 20260504213027 | 78 | 186 | 4.3 | 11.3 | 0.00 | 0.00 | 0.00 | 53 | 1003.2 |
| 20260504212527 | 78 | 178 | 3.5 | 8.7 | 0.00 | 0.00 | 0.00 | 53 | 1003.2 |
| 20260504212027 | 78 | 180 | 6.1 | 8.7 | 0.00 | 0.00 | 0.00 | 52 | 1003.3 |
| 20260504211528 | 78 | 181 | 4.3 | 7.8 | 0.00 | 0.00 | 0.00 | 53 | 1003.4 |
| 20260504211028 | 78 | 174 | 4.3 | 9.6 | 0.00 | 0.00 | 0.00 | 52 | 1003.5 |
| 20260504210528 | 78 | 187 | 4.3 | 11.3 | 0.00 | 0.00 | 0.00 | 52 | 1003.5 |
| 20260504210028 | 78 | 176 | 4.3 | 7.8 | 0.00 | 0.00 | 0.00 | 51 | 1003.5 |
| 20260504205528 | 79 | 157 | 4.3 | 8.7 | 0.00 | 0.00 | 0.00 | 52 | 1003.5 |
| 20260504205027 | 79 | 188 | 7.0 | 13.9 | 0.00 | 0.00 | 0.00 | 50 | 1003.6 |
| 20260504204527 | 79 | 174 | 3.5 | 7.8 | 0.00 | 0.00 | 0.00 | 51 | 1003.7 |
| 20260504204027 | 79 | 176 | 5.2 | 13.0 | 0.00 | 0.00 | 0.00 | 51 | 1003.8 |
| 20260504203527 | 79 | 182 | 5.2 | 13.0 | 0.00 | 0.00 | 0.00 | 50 | 1003.7 |
| 20260504203027 | 79 | 188 | 7.0 | 13.0 | 0.00 | 0.00 | 0.00 | 50 | 1003.8 |
| 20260504201527 | 79 | 200 | 7.8 | 16.5 | 0.00 | 0.00 | 0.00 | 49 | 1004.0 |
| 20260504201027 | 79 | 188 | 7.0 | 13.9 | 0.00 | 0.00 | 0.00 | 48 | 1004.1 |
| 20260504200528 | 79 | 190 | 6.1 | 13.9 | 0.00 | 0.00 | 0.00 | 48 | 1004.1 |
| 20260504200028 | 79 | 181 | 6.1 | 11.3 | 0.00 | 0.00 | 0.00 | 49 | 1004.3 |
| 20260504195527 | 79 | 209 | 7.0 | 13.0 | 0.00 | 0.00 | 0.00 | 48 | 1004.3 |
| 20260504195027 | 79 | 201 | 6.1 | 11.3 | 0.00 | 0.00 | 0.00 | 48 | 1004.3 |
| 20260504194528 | 80 | 197 | 6.1 | 15.6 | 0.00 | 0.00 | 0.00 | 48 | 1004.4 |
| 20260504194028 | 80 | 185 | 7.0 | 13.9 | 0.00 | 0.00 | 0.00 | 46 | 1004.4 |
| 20260504193528 | 80 | 188 | 5.2 | 10.4 | 0.00 | 0.00 | 0.00 | 47 | 1004.5 |
| 20260504193028 | 80 | 191 | 6.1 | 14.8 | 0.00 | 0.00 | 0.00 | 47 | 1004.5 |
| 20260504192527 | 80 | 191 | 7.8 | 16.5 | 0.00 | 0.00 | 0.00 | 46 | 1004.6 |
| 20260504192033 | 80 | 205 | 6.1 | 13.9 | 0.00 | 0.00 | 0.00 | 45 | 1004.7 |
| 20260504191527 | 80 | 192 | 6.1 | 14.8 | 0.00 | 0.00 | 0.00 | 45 | 1004.8 |
| 20260504191027 | 80 | 194 | 5.2 | 12.2 | 0.00 | 0.00 | 0.00 | 46 | 1004.9 |
| 20260504190527 | 80 | 186 | 6.1 | 13.0 | 0.00 | 0.00 | 0.00 | 46 | 1004.9 |
| 20260504190027 | 79 | 186 | 7.0 | 17.4 | 0.00 | 0.00 | 0.00 | 46 | 1004.9 |
| 20260504185528 | 79 | 192 | 7.0 | 13.9 | 0.00 | 0.00 | 0.00 | 45 | 1004.9 |
| 20260504185028 | 80 | 192 | 8.7 | 14.8 | 0.00 | 0.00 | 0.00 | 45 | 1004.9 |
| 20260504184527 | 79 | 195 | 7.8 | 15.6 | 0.00 | 0.00 | 0.00 | 45 | 1004.9 |
| 20260504184027 | 80 | 186 | 8.7 | 16.5 | 0.00 | 0.00 | 0.00 | 44 | 1005.0 |
| 20260504183527 | 80 | 186 | 7.8 | 17.4 | 0.00 | 0.00 | 0.00 | 44 | 1005.1 |
| 20260504183027 | 80 | 178 | 7.0 | 14.8 | 0.00 | 0.00 | 0.00 | 44 | 1005.1 |
| 20260504182528 | 80 | 197 | 7.8 | 14.8 | 0.00 | 0.00 | 0.00 | 44 | 1005.1 |
| 20260504182028 | 80 | 192 | 7.8 | 16.5 | 0.00 | 0.00 | 0.00 | 44 | 1005.1 |
| 20260504181528 | 80 | 183 | 7.0 | 15.6 | 0.00 | 0.00 | 0.00 | 45 | 1005.1 |
| 20260504181028 | 80 | 198 | 7.0 | 15.6 | 0.00 | 0.00 | 0.00 | 44 | 1005.1 |
| 20260504180527 | 79 | 201 | 7.8 | 14.8 | 0.00 | 0.00 | 0.00 | 44 | 1005.2 |
| 20260504180027 | 79 | 200 | 7.0 | 13.9 | 0.00 | 0.00 | 0.00 | 43 | 1005.2 |
| 20260504173527 | 80 | 191 | 4.3 | 7.8 | 0.00 | 0.00 | 0.00 | 44 | 1005.6 |
| 20260504173027 | 79 | 199 | 5.2 | 10.4 | 0.00 | 0.00 | 0.00 | 45 | 1005.7 |
| 20260504172527 | 79 | 192 | 5.2 | 13.9 | 0.00 | 0.00 | 0.00 | 44 | 1005.7 |
| 20260504172027 | 79 | 199 | 7.8 | 16.5 | 0.00 | 0.00 | 0.00 | 44 | 1005.7 |
| 20260504171527 | 79 | 203 | 5.2 | 9.6 | 0.00 | 0.00 | 0.00 | 44 | 1005.7 |
| 20260504171027 | 79 | 200 | 5.2 | 13.9 | 0.00 | 0.00 | 0.00 | 44 | 1005.9 |
| 20260504170527 | 78 | 209 | 5.2 | 13.0 | 0.00 | 0.00 | 0.00 | 44 | 1005.9 |
| 20260504151027 | 72 | 204 | 5.2 | 14.8 | 0.00 | 0.00 | 0.00 | 47 | 1006.9 |
| 20260504150528 | 72 | 202 | 7.0 | 18.2 | 0.00 | 0.00 | 0.00 | 47 | 1007.0 |
| 20260504141027 | 68 | 203 | 6.1 | 13.9 | 0.00 | 0.00 | 0.00 | 52 | 1007.3 |
| 20260504140527 | 68 | 199 | 3.5 | 9.6 | 0.00 | 0.00 | 0.00 | 53 | 1007.3 |
| 20260504130528 | 63 | 205 | 5.2 | 11.3 | 0.00 | 0.00 | 0.00 | 57 | 1007.5 |
| 20260504110527 | 62 | 191 | 3.5 | 7.8 | 0.00 | 0.00 | 0.00 | 55 | 1007.9 |